{"data":{"norad_id":56727,"epoch":"2026-05-25T01:37:20.593344Z","epoch_age_seconds":69221,"freshness":"FRESH","line1":"1 56727U 23068T   26145.06759946  .00000770  00000+0  97837-4 0  9991","line2":"2 56727  86.1961 339.7755 0002574  85.8147 274.3368 14.80240172162944","mean_motion":14.80240172,"eccentricity":0.0002574,"inclination_deg":86.1961,"raan_deg":339.7755,"arg_perigee_deg":85.8147,"mean_anomaly_deg":274.3368,"bstar":9.7837e-5,"rev_number":16294,"period_min":97.281510611509,"perigee_km":626.76260558983,"apogee_km":630.36965636166,"semimajor_km":7006.7031309757,"source":"CELESTRAK","updated_at":"2026-05-25T13:38:14.816581Z"}}